Kezdőlap
METAR-TAF:

METAR-TAF

Repülőterek :

Galesburg Municipal Airport

Galesburg, Illinois, Amerikai Egyesült Államok

földrajzi szélesség: 40-56-17N, földrajzi hosszúság: 090-25-52W, magasság: 233 m

Jelenlegi meteorológiai megfigyelések

A jelentés 34 perccel ezelõtt készült, 11:55 UTC
Északkeleti szél 5 kt
Hőmérséklet -1°C
Páratartalom 100%
Légköri nyomás 1027 hPa
Látótávolság: 6.4 km
Borult 1300 lábon
Párásság

METAR: KGBG 081155Z AUTO 05005KT 4SM BR OVC013 M01/M01 A3032 RMK AO2 T10071007 11002 21018

Idő: 06:29 (12:29 UTC)


TAF: hiányzik

Meteorológiai megfigyelések és előrejelzések több, mint 4000 repülőtéren (METAR és TAF jelentéseket).

A térképen piros és sárga pontok jelzik az elérhető meteorológiai állomásokat.

Mozgassa az egeret a pont fölött, hogy megjelenjen az állomás neve.

Azután kattintson az időjárási megfigyelések és előrejelzések megtekintéséhez.

A térkép megváltoztatása: kattintson a fekete keresztel jelölt zöld gombra ráközelítéshez, a vonallal jelölt zöld gombra távolításhoz, vagy a zöld nyilakra a szomszédos térképek eléréséhez.


METAR-TAF: